| time (UTC) | temp F | wind direction | speed MPH | gust MPH | rain 1hr in | rain 24hr in | rain mn in | humidity % | barometer mb |
| 20260504174700 | 59 | 184 | 9.0 | 13.0 | 0.00 | 0.02 | 0.02 | 93 | 1013.5 |
| 20260504174546 | 59 | 184 | 6.0 | 13.0 | 0.00 | 0.02 | 0.02 | 93 | 1013.6 |
| 20260504174143 | 59 | 191 | 5.0 | 11.0 | 0.00 | 0.02 | 0.02 | 93 | 1013.4 |
| 20260504174039 | 59 | 191 | 9.0 | 11.0 | 0.00 | 0.02 | 0.02 | 94 | 1013.5 |
| 20260504173626 | 59 | 217 | 8.0 | 9.0 | 0.00 | 0.02 | 0.02 | 94 | 1013.5 |
| 20260504173532 | 59 | 260 | 3.0 | 9.0 | 0.00 | 0.02 | 0.02 | 94 | 1013.5 |
| 20260504173109 | 59 | 228 | 7.0 | 9.0 | 0.00 | 0.02 | 0.02 | 95 | 1013.6 |
| 20260504173025 | 59 | 191 | 8.0 | 17.0 | 0.00 | 0.02 | 0.02 | 96 | 1013.6 |
| 20260504172552 | 59 | 187 | 10.0 | 17.0 | 0.00 | 0.02 | 0.02 | 97 | 1013.6 |
| 20260504172518 | 59 | 208 | 8.0 | 17.0 | 0.00 | 0.02 | 0.02 | 97 | 1013.6 |
| 20260504172035 | 58 | 228 | 5.0 | 17.0 | 0.00 | 0.02 | 0.02 | 98 | 1013.6 |
| 20260504171520 | 58 | 219 | 7.0 | 17.0 | 0.00 | 0.02 | 0.02 | 98 | 1013.5 |
| 20260504171504 | 58 | 219 | 5.0 | 17.0 | 0.00 | 0.02 | 0.02 | 98 | 1013.5 |
| 20260504171001 | 57 | 229 | 3.0 | 10.0 | 0.00 | 0.02 | 0.02 | 99 | 1013.6 |
| 20260504170957 | 57 | 229 | 3.0 | 10.0 | 0.00 | 0.02 | 0.02 | 99 | 1013.6 |
| 20260504170450 | 57 | 280 | 2.0 | 10.0 | 0.00 | 0.02 | 0.02 | 100 | 1013.5 |
| 20260504170444 | 57 | 280 | 2.0 | 10.0 | 0.00 | 0.02 | 0.02 | 100 | 1013.5 |
| 20260504160326 | 54 | 233 | 2.0 | 14.0 | 0.00 | 0.02 | 0.02 | 100 | 1013.3 |
| 20260504160120 | 54 | 190 | 12.0 | 14.0 | 0.00 | 0.02 | 0.02 | 100 | 1013.3 |
| 20260504150829 | 54 | 0 | 0.0 | 10.0 | 0.01 | 0.02 | 0.02 | 100 | 1012.9 |
| 20260504150709 | 54 | 200 | 7.0 | 10.0 | 0.01 | 0.02 | 0.02 | 100 | 1013.0 |
| 20260504150314 | 53 | 0 | 0.0 | 9.0 | 0.01 | 0.02 | 0.02 | 100 | 1012.9 |
| 20260504150202 | 53 | 196 | 7.0 | 9.0 | 0.01 | 0.02 | 0.02 | 100 | 1012.9 |
| 20260504141051 | 53 | 179 | 5.0 | 10.0 | 0.00 | 0.01 | 0.01 | 100 | 1012.7 |
| 20260504141022 | 53 | 179 | 5.0 | 10.0 | 0.00 | 0.01 | 0.01 | 100 | 1012.7 |
| 20260504140545 | 53 | 214 | 3.0 | 9.0 | 0.00 | 0.01 | 0.01 | 100 | 1012.6 |
| 20260504140505 | 53 | 214 | 3.0 | 9.0 | 0.00 | 0.01 | 0.01 | 100 | 1012.6 |
| 20260504130658 | 52 | 200 | 4.0 | 9.0 | 0.00 | 0.01 | 0.01 | 100 | 1012.1 |
| 20260504130420 | 52 | 200 | 3.0 | 8.0 | 0.00 | 0.01 | 0.01 | 100 | 1012.1 |
| 20260504130141 | 52 | 201 | 2.0 | 8.0 | 0.00 | 0.01 | 0.01 | 100 | 1012.1 |
| 20260504120256 | 52 | 191 | 5.0 | 9.0 | 0.00 | 0.01 | 0.01 | 100 | 1011.7 |
| 20260504110639 | 52 | 242 | 3.0 | 11.0 | 0.00 | 0.01 | 0.01 | 100 | 1011.8 |
| 20260504110527 | 52 | 242 | 3.0 | 11.0 | 0.00 | 0.01 | 0.01 | 100 | 1011.8 |
| 20260504100516 | 53 | 278 | 2.0 | 11.0 | 0.00 | 0.01 | 0.01 | 100 | 1011.8 |
| 20260504100203 | 53 | 194 | 3.0 | 11.0 | 0.00 | 0.01 | 0.01 | 100 | 1011.8 |
| 20260504081749 | 53 | 224 | 3.0 | 9.0 | 0.00 | 0.01 | 0.01 | 100 | 1011.6 |
| 20260504081623 | 53 | 224 | 3.0 | 9.0 | 0.00 | 0.01 | 0.01 | 100 | 1011.6 |
| 20260504081241 | 53 | 215 | 4.0 | 9.0 | 0.00 | 0.01 | 0.01 | 100 | 1011.6 |
| 20260504081106 | 53 | 215 | 4.0 | 9.0 | 0.00 | 0.01 | 0.01 | 100 | 1011.6 |
| 20260504080550 | 53 | 194 | 6.0 | 6.0 | 0.00 | 0.00 | 0.00 | 100 | 1011.6 |
| 20260504080229 | 53 | 221 | 4.0 | 9.0 | 0.00 | 0.00 | 0.00 | 100 | 1011.6 |
| 20260504070225 | 53 | 173 | 1.0 | 6.0 | 0.00 | 0.00 | 0.00 | 100 | 1011.4 |
| 20260504050611 | 54 | 196 | 4.0 | 10.0 | 0.00 | 0.00 | 0.00 | 98 | 1011.0 |
| 20260504050322 | 54 | 229 | 1.0 | 10.0 | 0.00 | 0.00 | 0.00 | 98 | 1011.0 |
| 20260504045815 | 54 | 261 | 2.0 | 7.0 | 0.00 | 0.00 | 0.00 | 98 | 1010.9 |
| 20260504045537 | 54 | 243 | 3.0 | 7.0 | 0.00 | 0.00 | 0.00 | 98 | 1010.9 |
| 20260504045308 | 54 | 243 | 6.0 | 7.0 | 0.00 | 0.00 | 0.00 | 98 | 1010.9 |
| 20260504045020 | 54 | 179 | 1.0 | 11.0 | 0.00 | 0.00 | 0.00 | 98 | 1010.9 |
| 20260504044801 | 54 | 0 | 0.0 | 11.0 | 0.00 | 0.00 | 0.00 | 98 | 1010.8 |
| 20260504044504 | 54 | 221 | 3.0 | 11.0 | 0.00 | 0.00 | 0.00 | 98 | 1010.8 |
| 20260504044254 | 54 | 0 | 0.0 | 11.0 | 0.00 | 0.00 | 0.00 | 98 | 1010.8 |
| 20260504043946 | 54 | 203 | 3.0 | 11.0 | 0.00 | 0.00 | 0.00 | 98 | 1010.7 |
| 20260504043749 | 54 | 218 | 5.0 | 11.0 | 0.00 | 0.00 | 0.00 | 98 | 1010.7 |
| 20260504043429 | 54 | 218 | 8.0 | 11.0 | 0.00 | 0.00 | 0.00 | 97 | 1010.6 |
| 20260504043241 | 54 | 204 | 2.0 | 5.0 | 0.00 | 0.00 | 0.00 | 97 | 1010.8 |
| 20260504042912 | 54 | 0 | 0.0 | 0.0 | 0.00 | 0.00 | 0.00 | 97 | 1010.7 |
| 20260504042733 | 54 | 208 | 4.0 | 12.0 | 0.00 | 0.00 | 0.00 | 97 | 1010.5 |
| 20260504042355 | 54 | 224 | 7.0 | 12.0 | 0.00 | 0.00 | 0.00 | 97 | 1010.5 |
| 20260504042226 | 54 | 224 | 5.0 | 12.0 | 0.00 | 0.00 | 0.00 | 97 | 1010.5 |
| 20260504041838 | 54 | 224 | 3.0 | 12.0 | 0.00 | 0.00 | 0.00 | 97 | 1010.4 |
| 20260504041719 | 54 | 190 | 7.0 | 12.0 | 0.00 | 0.00 | 0.00 | 97 | 1010.4 |
| 20260504041321 | 54 | 179 | 5.0 | 12.0 | 0.00 | 0.00 | 0.00 | 97 | 1010.3 |
| 20260504040804 | 54 | 196 | 9.0 | 13.0 | 0.00 | 0.00 | 0.00 | 96 | 1010.2 |
| 20260504040705 | 54 | 190 | 5.0 | 13.0 | 0.00 | 0.00 | 0.00 | 96 | 1010.2 |
| 20260504040158 | 54 | 264 | 5.0 | 13.0 | 0.00 | 0.00 | 0.00 | 96 | 1010.1 |
| 20260504035730 | 54 | 218 | 4.0 | 13.0 | 0.00 | 0.00 | 0.00 | 96 | 1010.2 |
| 20260504035651 | 54 | 218 | 4.0 | 13.0 | 0.00 | 0.00 | 0.00 | 96 | 1010.3 |
| 20260504035213 | 54 | 187 | 6.0 | 13.0 | 0.00 | 0.00 | 0.00 | 96 | 1010.0 |
| 20260504035144 | 54 | 187 | 11.0 | 13.0 | 0.00 | 0.00 | 0.00 | 96 | 1010.0 |
| 20260504034656 | 54 | 204 | 5.0 | 10.0 | 0.00 | 0.00 | 0.00 | 95 | 1009.9 |
| 20260504034637 | 54 | 204 | 8.0 | 10.0 | 0.00 | 0.00 | 0.00 | 96 | 1009.9 |
| 20260504034139 | 54 | 225 | 7.0 | 10.0 | 0.00 | 0.00 | 0.00 | 96 | 1009.9 |
| 20260504034130 | 54 | 222 | 8.0 | 8.0 | 0.00 | 0.00 | 0.00 | 96 | 1009.9 |
| 20260504033622 | 54 | 236 | 3.0 | 7.0 | 0.00 | 0.00 | 0.00 | 95 | 1009.8 |
| 20260504033116 | 54 | 224 | 5.0 | 13.0 | 0.00 | 0.00 | 0.00 | 95 | 1009.8 |
| 20260504033105 | 54 | 224 | 5.0 | 13.0 | 0.00 | 0.00 | 0.00 | 95 | 1009.8 |
| 20260504032609 | 54 | 242 | 9.0 | 13.0 | 0.00 | 0.00 | 0.00 | 95 | 1009.7 |
| 20260504032102 | 54 | 197 | 7.0 | 13.0 | 0.00 | 0.00 | 0.00 | 95 | 1009.7 |
| 20260504032031 | 54 | 197 | 9.0 | 13.0 | 0.00 | 0.00 | 0.00 | 95 | 1009.7 |
| 20260504031555 | 54 | 232 | 2.0 | 13.0 | 0.00 | 0.00 | 0.00 | 94 | 1009.6 |
| 20260504031514 | 54 | 232 | 2.0 | 13.0 | 0.00 | 0.00 | 0.00 | 94 | 1009.6 |
| 20260504031048 | 54 | 215 | 7.0 | 13.0 | 0.00 | 0.00 | 0.00 | 94 | 1009.6 |
| 20260504030957 | 54 | 208 | 8.0 | 13.0 | 0.00 | 0.00 | 0.00 | 94 | 1009.6 |
| 20260504030541 | 54 | 207 | 9.0 | 10.0 | 0.00 | 0.00 | 0.00 | 94 | 1009.4 |
| 20260504030441 | 54 | 239 | 7.0 | 10.0 | 0.00 | 0.00 | 0.00 | 94 | 1009.4 |
| 20260504030034 | 54 | 214 | 4.0 | 10.0 | 0.00 | 0.00 | 0.00 | 93 | 1009.4 |
| 20260504025922 | 54 | 214 | 6.0 | 10.0 | 0.00 | 0.00 | 0.00 | 93 | 1009.4 |
| 20260504025527 | 54 | 183 | 3.0 | 10.0 | 0.00 | 0.00 | 0.00 | 93 | 1009.4 |
| 20260504025406 | 54 | 155 | 2.0 | 10.0 | 0.00 | 0.00 | 0.00 | 93 | 1009.3 |
| 20260504025020 | 55 | 210 | 8.0 | 10.0 | 0.00 | 0.00 | 0.00 | 92 | 1009.4 |
| 20260504024849 | 55 | 210 | 8.0 | 15.0 | 0.00 | 0.00 | 0.00 | 92 | 1009.4 |
| 20260504024514 | 55 | 212 | 7.0 | 15.0 | 0.00 | 0.00 | 0.00 | 92 | 1009.3 |
| 20260504024006 | 55 | 211 | 4.0 | 15.0 | 0.00 | 0.00 | 0.00 | 92 | 1009.2 |
| 20260504023814 | 55 | 222 | 3.0 | 15.0 | 0.00 | 0.00 | 0.00 | 91 | 1009.3 |
| 20260504023459 | 55 | 201 | 8.0 | 15.0 | 0.00 | 0.00 | 0.00 | 91 | 1009.2 |
| 20260504023258 | 55 | 207 | 10.0 | 15.0 | 0.00 | 0.00 | 0.00 | 91 | 1009.3 |
| 20260504022952 | 55 | 217 | 8.0 | 10.0 | 0.00 | 0.00 | 0.00 | 90 | 1009.2 |
| 20260504022740 | 55 | 211 | 4.0 | 8.0 | 0.00 | 0.00 | 0.00 | 90 | 1009.2 |
| 20260504022445 | 55 | 200 | 3.0 | 8.0 | 0.00 | 0.00 | 0.00 | 90 | 1009.2 |
| 20260504022224 | 55 | 203 | 6.0 | 8.0 | 0.00 | 0.00 | 0.00 | 90 | 1009.2 |
| 20260504021938 | 55 | 228 | 4.0 | 8.0 | 0.00 | 0.00 | 0.00 | 90 | 1009.1 |
| 20260504021707 | 55 | 239 | 3.0 | 8.0 | 0.00 | 0.00 | 0.00 | 89 | 1009.1 |
| 20260504021431 | 55 | 239 | 3.0 | 8.0 | 0.00 | 0.00 | 0.00 | 89 | 1009.2 |
| 20260504021150 | 55 | 211 | 5.0 | 7.0 | 0.00 | 0.00 | 0.00 | 88 | 1009.1 |
| 20260504020924 | 55 | 284 | 2.0 | 5.0 | 0.00 | 0.00 | 0.00 | 88 | 1009.0 |
| 20260504020632 | 56 | 268 | 6.0 | 11.0 | 0.00 | 0.00 | 0.00 | 88 | 1009.0 |
| 20260504020116 | 56 | 198 | 4.0 | 11.0 | 0.00 | 0.00 | 0.00 | 87 | 1008.9 |
| 20260504015910 | 56 | 198 | 4.0 | 11.0 | 0.00 | 0.00 | 0.00 | 87 | 1008.9 |
| 20260504015559 | 56 | 212 | 5.0 | 11.0 | 0.00 | 0.00 | 0.00 | 87 | 1008.8 |
| 20260504015403 | 56 | 250 | 2.0 | 11.0 | 0.00 | 0.00 | 0.00 | 87 | 1008.8 |
| 20260504015041 | 56 | 184 | 8.0 | 11.0 | 0.00 | 0.00 | 0.00 | 86 | 1008.8 |
| 20260504014856 | 56 | 201 | 4.0 | 11.0 | 0.00 | 0.00 | 0.00 | 86 | 1008.7 |
| 20260504014524 | 56 | 253 | 3.0 | 11.0 | 0.00 | 0.00 | 0.00 | 86 | 1008.6 |
| 20260504014348 | 56 | 0 | 0.0 | 11.0 | 0.00 | 0.00 | 0.00 | 85 | 1008.6 |
| 20260504014007 | 57 | 187 | 5.0 | 9.0 | 0.00 | 0.00 | 0.00 | 85 | 1008.4 |
| 20260504013842 | 57 | 239 | 1.0 | 9.0 | 0.00 | 0.00 | 0.00 | 85 | 1008.5 |
| 20260504013450 | 57 | 190 | 4.0 | 9.0 | 0.00 | 0.00 | 0.00 | 84 | 1008.4 |
| 20260504013335 | 57 | 271 | 6.0 | 8.0 | 0.00 | 0.00 | 0.00 | 84 | 1008.4 |
| 20260504012933 | 57 | 229 | 3.0 | 9.0 | 0.00 | 0.00 | 0.00 | 84 | 1008.6 |
| 20260504012827 | 57 | 263 | 4.0 | 9.0 | 0.00 | 0.00 | 0.00 | 84 | 1008.6 |
| 20260504012416 | 57 | 257 | 3.0 | 9.0 | 0.00 | 0.00 | 0.00 | 83 | 1008.6 |
| 20260504012321 | 57 | 257 | 2.0 | 9.0 | 0.00 | 0.00 | 0.00 | 83 | 1008.6 |
| 20260504011859 | 58 | 245 | 1.0 | 9.0 | 0.00 | 0.00 | 0.00 | 82 | 1008.5 |
| 20260504010829 | 59 | 194 | 5.0 | 8.0 | 0.00 | 0.00 | 0.00 | 81 | 1008.4 |
| 20260504010308 | 59 | 0 | 0.0 | 7.0 | 0.00 | 0.00 | 0.00 | 80 | 1008.5 |
| 20260504010252 | 59 | 191 | 5.0 | 7.0 | 0.00 | 0.00 | 0.00 | 80 | 1008.5 |
| 20260504005748 | 59 | 200 | 6.0 | 11.0 | 0.00 | 0.00 | 0.00 | 80 | 1008.4 |
| 20260504005234 | 60 | 193 | 5.0 | 11.0 | 0.00 | 0.00 | 0.00 | 79 | 1008.4 |
| 20260504004731 | 60 | 271 | 5.0 | 11.0 | 0.00 | 0.00 | 0.00 | 78 | 1008.4 |
| 20260504004717 | 60 | 271 | 3.0 | 11.0 | 0.00 | 0.00 | 0.00 | 78 | 1008.4 |
| 20260504004224 | 60 | 218 | 7.0 | 11.0 | 0.00 | 0.00 | 0.00 | 78 | 1008.3 |
| 20260504004200 | 60 | 218 | 8.0 | 11.0 | 0.00 | 0.00 | 0.00 | 78 | 1008.4 |
| 20260504003717 | 60 | 205 | 4.0 | 9.0 | 0.00 | 0.00 | 0.00 | 78 | 1008.4 |
| 20260504003644 | 60 | 205 | 7.0 | 9.0 | 0.00 | 0.00 | 0.00 | 78 | 1008.4 |
| 20260504003210 | 60 | 173 | 5.0 | 7.0 | 0.00 | 0.00 | 0.00 | 77 | 1008.4 |
| 20260504003126 | 60 | 175 | 7.0 | 7.0 | 0.00 | 0.00 | 0.00 | 77 | 1008.4 |
| 20260504002609 | 61 | 211 | 3.0 | 7.0 | 0.00 | 0.00 | 0.00 | 76 | 1008.4 |
| 20260504002156 | 61 | 196 | 4.0 | 10.0 | 0.00 | 0.00 | 0.00 | 75 | 1008.6 |
| 20260504002052 | 61 | 196 | 4.0 | 10.0 | 0.00 | 0.00 | 0.00 | 75 | 1008.6 |
| 20260504001649 | 62 | 229 | 5.0 | 10.0 | 0.00 | 0.00 | 0.00 | 75 | 1008.7 |
| 20260504001535 | 62 | 210 | 5.0 | 10.0 | 0.00 | 0.00 | 0.00 | 75 | 1008.6 |
| 20260504001143 | 62 | 170 | 6.0 | 10.0 | 0.00 | 0.00 | 0.00 | 75 | 1008.7 |
| 20260504001018 | 62 | 170 | 7.0 | 10.0 | 0.00 | 0.00 | 0.00 | 74 | 1008.7 |
| 20260504000635 | 62 | 191 | 7.0 | 9.0 | 0.00 | 0.00 | 0.00 | 73 | 1008.7 |
| 20260504000501 | 62 | 205 | 4.0 | 9.0 | 0.00 | 0.00 | 0.00 | 73 | 1008.8 |
| 20260504000128 | 62 | 245 | 4.0 | 9.0 | 0.00 | 0.00 | 0.00 | 73 | 1008.7 |
| 20260503235944 | 62 | 243 | 2.0 | 9.0 | 0.00 | 0.00 | 0.00 | 73 | 1008.7 |
| 20260503235621 | 62 | 182 | 4.0 | 9.0 | 0.00 | 0.00 | 0.00 | 72 | 1008.8 |
| 20260503235428 | 63 | 182 | 8.0 | 9.0 | 0.00 | 0.00 | 0.00 | 71 | 1008.8 |
| 20260503235114 | 63 | 208 | 6.0 | 10.0 | 0.00 | 0.00 | 0.00 | 70 | 1008.8 |
| 20260503234910 | 64 | 208 | 6.0 | 10.0 | 0.00 | 0.00 | 0.00 | 69 | 1008.8 |
| 20260503234608 | 64 | 264 | 4.0 | 10.0 | 0.00 | 0.00 | 0.00 | 68 | 1008.6 |
| 20260503234353 | 65 | 274 | 2.0 | 10.0 | 0.00 | 0.00 | 0.00 | 67 | 1008.6 |
| 20260503234100 | 66 | 247 | 3.0 | 10.0 | 0.00 | 0.00 | 0.00 | 66 | 1008.6 |
| 20260503233836 | 66 | 229 | 2.0 | 10.0 | 0.00 | 0.00 | 0.00 | 65 | 1008.5 |
| 20260503233553 | 67 | 208 | 8.0 | 10.0 | 0.00 | 0.00 | 0.00 | 65 | 1008.6 |
| 20260503233319 | 68 | 243 | 6.0 | 9.0 | 0.00 | 0.00 | 0.00 | 65 | 1008.6 |
| 20260503233046 | 68 | 268 | 6.0 | 9.0 | 0.00 | 0.00 | 0.00 | 64 | 1008.6 |
| 20260503232802 | 68 | 0 | 4.0 | 9.0 | 0.00 | 0.00 | 0.00 | 64 | 1008.6 |
| 20260503232539 | 68 | 263 | 2.0 | 9.0 | 0.00 | 0.00 | 0.00 | 65 | 1008.5 |
| 20260503232032 | 69 | 252 | 3.0 | 9.0 | 0.00 | 0.00 | 0.00 | 64 | 1008.6 |
| 20260503231728 | 69 | 197 | 4.0 | 9.0 | 0.00 | 0.00 | 0.00 | 64 | 1008.6 |
| 20260503231525 | 69 | 197 | 8.0 | 9.0 | 0.00 | 0.00 | 0.00 | 64 | 1008.6 |
| 20260503231211 | 69 | 249 | 5.0 | 8.0 | 0.00 | 0.00 | 0.00 | 64 | 1008.7 |
| 20260503231018 | 69 | 215 | 4.0 | 8.0 | 0.00 | 0.00 | 0.00 | 63 | 1008.6 |
| 20260503230654 | 70 | 228 | 5.0 | 8.0 | 0.00 | 0.00 | 0.00 | 64 | 1008.7 |
| 20260503230511 | 70 | 228 | 6.0 | 8.0 | 0.00 | 0.00 | 0.00 | 63 | 1008.6 |
| 20260503230004 | 70 | 303 | 6.0 | 8.0 | 0.00 | 0.00 | 0.00 | 62 | 1008.4 |
| 20260503225620 | 70 | 184 | 2.0 | 5.0 | 0.00 | 0.00 | 0.00 | 62 | 1008.4 |
| 20260503225457 | 70 | 190 | 2.0 | 5.0 | 0.00 | 0.00 | 0.00 | 62 | 1008.5 |
| 20260503224950 | 70 | 287 | 3.0 | 5.0 | 0.00 | 0.00 | 0.00 | 62 | 1008.5 |
| 20260503224546 | 70 | 280 | 2.0 | 5.0 | 0.00 | 0.00 | 0.00 | 62 | 1008.5 |
| 20260503224443 | 70 | 263 | 2.0 | 4.0 | 0.00 | 0.00 | 0.00 | 62 | 1008.5 |
| 20260503224029 | 70 | 254 | 2.0 | 8.0 | 0.00 | 0.00 | 0.00 | 63 | 1008.5 |
| 20260503223936 | 70 | 254 | 4.0 | 8.0 | 0.00 | 0.00 | 0.00 | 63 | 1008.6 |
| 20260503223512 | 70 | 294 | 3.0 | 8.0 | 0.00 | 0.00 | 0.00 | 63 | 1008.5 |
| 20260503223429 | 69 | 294 | 1.0 | 8.0 | 0.00 | 0.00 | 0.00 | 63 | 1008.5 |
| 20260503222955 | 69 | 291 | 1.0 | 8.0 | 0.00 | 0.00 | 0.00 | 62 | 1008.7 |
| 20260503222923 | 69 | 264 | 1.0 | 8.0 | 0.00 | 0.00 | 0.00 | 62 | 1008.7 |
| 20260503222438 | 69 | 277 | 4.0 | 6.0 | 0.00 | 0.00 | 0.00 | 62 | 1008.7 |
| 20260503222416 | 70 | 277 | 5.0 | 6.0 | 0.00 | 0.00 | 0.00 | 62 | 1008.8 |
| 20260503221921 | 69 | 278 | 5.0 | 6.0 | 0.00 | 0.00 | 0.00 | 63 | 1008.9 |
| 20260503221908 | 70 | 168 | 3.0 | 6.0 | 0.00 | 0.00 | 0.00 | 63 | 1008.9 |
| 20260503221404 | 69 | 249 | 2.0 | 6.0 | 0.00 | 0.00 | 0.00 | 63 | 1008.9 |
| 20260503221401 | 69 | 249 | 3.0 | 6.0 | 0.00 | 0.00 | 0.00 | 63 | 1008.7 |
| 20260503220854 | 69 | 238 | 2.0 | 5.0 | 0.00 | 0.00 | 0.00 | 63 | 1008.8 |
| 20260503220847 | 69 | 238 | 2.0 | 5.0 | 0.00 | 0.00 | 0.00 | 62 | 1008.8 |
| 20260503220347 | 69 | 298 | 4.0 | 5.0 | 0.00 | 0.00 | 0.00 | 62 | 1008.9 |
| 20260503220331 | 69 | 312 | 1.0 | 5.0 | 0.00 | 0.00 | 0.00 | 62 | 1008.9 |
| 20260503215840 | 69 | 295 | 1.0 | 5.0 | 0.00 | 0.00 | 0.00 | 61 | 1009.0 |
| 20260503215813 | 69 | 295 | 3.0 | 5.0 | 0.00 | 0.00 | 0.00 | 61 | 1009.0 |
| 20260503215334 | 70 | 287 | 2.0 | 5.0 | 0.00 | 0.00 | 0.00 | 60 | 1009.0 |
| 20260503215256 | 70 | 289 | 4.0 | 5.0 | 0.00 | 0.00 | 0.00 | 61 | 1009.0 |
| 20260503214826 | 71 | 284 | 3.0 | 5.0 | 0.00 | 0.00 | 0.00 | 60 | 1008.9 |
| 20260503214739 | 71 | 273 | 4.0 | 5.0 | 0.00 | 0.00 | 0.00 | 61 | 1008.9 |
| 20260503214320 | 71 | 284 | 3.0 | 3.0 | 0.00 | 0.00 | 0.00 | 61 | 1008.9 |
| 20260503214222 | 71 | 247 | 1.0 | 3.0 | 0.00 | 0.00 | 0.00 | 61 | 1008.9 |
| 20260503213812 | 71 | 0 | 0.0 | 5.0 | 0.00 | 0.00 | 0.00 | 61 | 1009.0 |
| 20260503213705 | 71 | 296 | 1.0 | 5.0 | 0.00 | 0.00 | 0.00 | 62 | 1009.0 |
| 20260503213305 | 71 | 0 | 0.0 | 5.0 | 0.00 | 0.00 | 0.00 | 61 | 1009.0 |
| 20260503213148 | 71 | 236 | 2.0 | 5.0 | 0.00 | 0.00 | 0.00 | 62 | 1009.0 |
| 20260503212758 | 71 | 0 | 0.0 | 5.0 | 0.00 | 0.00 | 0.00 | 62 | 1008.9 |
| 20260503212631 | 71 | 302 | 4.0 | 5.0 | 0.00 | 0.00 | 0.00 | 62 | 1008.9 |
| 20260503212251 | 71 | 303 | 2.0 | 5.0 | 0.00 | 0.00 | 0.00 | 63 | 1009.0 |
| 20260503211744 | 70 | 289 | 2.0 | 4.0 | 0.00 | 0.00 | 0.00 | 64 | 1009.1 |
| 20260503211557 | 70 | 289 | 2.0 | 4.0 | 0.00 | 0.00 | 0.00 | 64 | 1009.1 |
| 20260503211237 | 70 | 301 | 2.0 | 4.0 | 0.00 | 0.00 | 0.00 | 64 | 1009.2 |
| 20260503211040 | 69 | 301 | 2.0 | 4.0 | 0.00 | 0.00 | 0.00 | 64 | 1009.2 |
| 20260503210730 | 69 | 261 | 2.0 | 4.0 | 0.00 | 0.00 | 0.00 | 65 | 1009.0 |
| 20260503210523 | 69 | 261 | 4.0 | 4.0 | 0.00 | 0.00 | 0.00 | 65 | 1009.1 |
| 20260503210223 | 68 | 278 | 2.0 | 4.0 | 0.00 | 0.00 | 0.00 | 66 | 1009.1 |
| 20260503210006 | 68 | 278 | 1.0 | 4.0 | 0.00 | 0.00 | 0.00 | 66 | 1009.2 |
| 20260503205716 | 68 | 278 | 1.0 | 4.0 | 0.00 | 0.00 | 0.00 | 65 | 1009.2 |
| 20260503205449 | 68 | 0 | 0.0 | 4.0 | 0.00 | 0.00 | 0.00 | 66 | 1009.3 |
| 20260503205209 | 67 | 316 | 2.0 | 4.0 | 0.00 | 0.00 | 0.00 | 66 | 1009.4 |
| 20260503204932 | 67 | 316 | 2.0 | 4.0 | 0.00 | 0.00 | 0.00 | 66 | 1009.3 |
| 20260503204702 | 67 | 233 | 1.0 | 3.0 | 0.00 | 0.00 | 0.00 | 66 | 1009.3 |
| 20260503204415 | 67 | 253 | 3.0 | 5.0 | 0.00 | 0.00 | 0.00 | 65 | 1009.3 |
| 20260503204155 | 67 | 260 | 4.0 | 5.0 | 0.00 | 0.00 | 0.00 | 66 | 1009.4 |
| 20260503203858 | 67 | 288 | 3.0 | 5.0 | 0.00 | 0.00 | 0.00 | 66 | 1009.4 |
| 20260503203648 | 67 | 329 | 2.0 | 5.0 | 0.00 | 0.00 | 0.00 | 66 | 1009.5 |
| 20260503203341 | 67 | 329 | 3.0 | 5.0 | 0.00 | 0.00 | 0.00 | 66 | 1009.5 |
| 20260503203142 | 67 | 271 | 2.0 | 5.0 | 0.00 | 0.00 | 0.00 | 66 | 1009.5 |
| 20260503202824 | 67 | 285 | 3.0 | 5.0 | 0.00 | 0.00 | 0.00 | 66 | 1009.5 |
| 20260503202634 | 67 | 337 | 3.0 | 4.0 | 0.00 | 0.00 | 0.00 | 66 | 1009.6 |
| 20260503202307 | 67 | 252 | 3.0 | 3.0 | 0.00 | 0.00 | 0.00 | 66 | 1009.4 |
| 20260503202127 | 68 | 299 | 2.0 | 7.0 | 0.00 | 0.00 | 0.00 | 66 | 1009.4 |
| 20260503201750 | 68 | 285 | 2.0 | 7.0 | 0.00 | 0.00 | 0.00 | 66 | 1009.5 |
| 20260503201620 | 68 | 285 | 4.0 | 7.0 | 0.00 | 0.00 | 0.00 | 66 | 1009.4 |
| 20260503201233 | 68 | 267 | 2.0 | 7.0 | 0.00 | 0.00 | 0.00 | 66 | 1009.5 |
| 20260503200716 | 67 | 274 | 3.0 | 7.0 | 0.00 | 0.00 | 0.00 | 66 | 1009.6 |
| 20260503200606 | 67 | 274 | 3.0 | 7.0 | 0.00 | 0.00 | 0.00 | 66 | 1009.6 |
| 20260503200159 | 67 | 280 | 4.0 | 6.0 | 0.00 | 0.00 | 0.00 | 66 | 1009.6 |
| 20260503200059 | 67 | 280 | 2.0 | 6.0 | 0.00 | 0.00 | 0.00 | 67 | 1009.6 |
| 20260503195642 | 67 | 261 | 2.0 | 6.0 | 0.00 | 0.00 | 0.00 | 67 | 1009.6 |
| 20260503195552 | 67 | 261 | 2.0 | 6.0 | 0.00 | 0.00 | 0.00 | 67 | 1009.6 |
| 20260503195125 | 67 | 239 | 3.0 | 6.0 | 0.00 | 0.00 | 0.00 | 67 | 1009.7 |
| 20260503195045 | 67 | 239 | 4.0 | 6.0 | 0.00 | 0.00 | 0.00 | 67 | 1009.7 |
| 20260503194608 | 67 | 268 | 2.0 | 5.0 | 0.00 | 0.00 | 0.00 | 67 | 1009.7 |
| 20260503194538 | 67 | 268 | 2.0 | 5.0 | 0.00 | 0.00 | 0.00 | 68 | 1009.5 |
| 20260503194052 | 67 | 267 | 4.0 | 5.0 | 0.00 | 0.00 | 0.00 | 68 | 1009.6 |
| 20260503194031 | 67 | 267 | 4.0 | 5.0 | 0.00 | 0.00 | 0.00 | 68 | 1009.6 |
| 20260503193524 | 67 | 333 | 1.0 | 5.0 | 0.00 | 0.00 | 0.00 | 68 | 1009.7 |
| 20260503193018 | 68 | 292 | 3.0 | 5.0 | 0.00 | 0.00 | 0.00 | 68 | 1009.7 |
| 20260503192500 | 68 | 261 | 2.0 | 3.0 | 0.00 | 0.00 | 0.00 | 68 | 1009.7 |
| 20260503192003 | 68 | 261 | 1.0 | 3.0 | 0.00 | 0.00 | 0.00 | 69 | 1009.8 |
| 20260503191943 | 68 | 261 | 1.0 | 3.0 | 0.00 | 0.00 | 0.00 | 70 | 1009.8 |
| 20260503191426 | 67 | 0 | 0.0 | 0.0 | 0.00 | 0.00 | 0.00 | 70 | 1009.8 |
| 20260503190949 | 67 | 0 | 0.0 | 5.0 | 0.00 | 0.00 | 0.00 | 71 | 1009.8 |
| 20260503190909 | 67 | 0 | 0.0 | 5.0 | 0.00 | 0.00 | 0.00 | 71 | 1009.8 |
| 20260503190442 | 66 | 257 | 2.0 | 5.0 | 0.00 | 0.00 | 0.00 | 71 | 1009.9 |
| 20260503190352 | 66 | 257 | 3.0 | 5.0 | 0.00 | 0.00 | 0.00 | 71 | 1009.9 |
| 20260503185835 | 66 | 246 | 3.0 | 5.0 | 0.00 | 0.00 | 0.00 | 71 | 1009.8 |
| 20260503185428 | 66 | 280 | 5.0 | 5.0 | 0.00 | 0.00 | 0.00 | 72 | 1009.8 |
| 20260503185318 | 66 | 235 | 1.0 | 5.0 | 0.00 | 0.00 | 0.00 | 72 | 1009.8 |
| 20260503184921 | 65 | 0 | 0.0 | 5.0 | 0.00 | 0.00 | 0.00 | 73 | 1009.9 |
| 20260503184801 | 65 | 0 | 0.0 | 5.0 | 0.00 | 0.00 | 0.00 | 72 | 1009.9 |
| 20260503184414 | 65 | 0 | 0.0 | 5.0 | 0.00 | 0.00 | 0.00 | 72 | 1009.9 |
| 20260503183907 | 65 | 340 | 2.0 | 5.0 | 0.00 | 0.00 | 0.00 | 72 | 1010.0 |
| 20260503183727 | 65 | 322 | 5.0 | 5.0 | 0.00 | 0.00 | 0.00 | 72 | 1009.8 |
| 20260503183400 | 65 | 0 | 0.0 | 0.0 | 0.00 | 0.00 | 0.00 | 73 | 1009.9 |
| 20260503182853 | 64 | 0 | 0.0 | 3.0 | 0.00 | 0.00 | 0.00 | 73 | 1010.0 |
| 20260503182653 | 64 | 0 | 0.0 | 3.0 | 0.00 | 0.00 | 0.00 | 73 | 1010.0 |
| 20260503182346 | 64 | 0 | 0.0 | 3.0 | 0.00 | 0.00 | 0.00 | 73 | 1010.1 |
| 20260503182136 | 64 | 278 | 1.0 | 3.0 | 0.00 | 0.00 | 0.00 | 73 | 1010.1 |
| 20260503181839 | 64 | 0 | 0.0 | 3.0 | 0.00 | 0.00 | 0.00 | 72 | 1010.2 |
| 20260503181619 | 64 | 0 | 0.0 | 3.0 | 0.00 | 0.00 | 0.00 | 72 | 1010.1 |
| 20260503181332 | 64 | 0 | 0.0 | 3.0 | 0.00 | 0.00 | 0.00 | 73 | 1010.1 |
| 20260503181102 | 64 | 278 | 3.0 | 3.0 | 0.00 | 0.00 | 0.00 | 73 | 1010.2 |
| 20260503180825 | 64 | 0 | 0.0 | 3.0 | 0.00 | 0.00 | 0.00 | 73 | 1010.2 |
| 20260503180545 | 64 | 0 | 0.0 | 3.0 | 0.00 | 0.00 | 0.00 | 74 | 1010.2 |
| 20260503180318 | 64 | 0 | 0.0 | 3.0 | 0.00 | 0.00 | 0.00 | 74 | 1010.2 |
| 20260503180028 | 64 | 0 | 0.0 | 3.0 | 0.00 | 0.00 | 0.00 | 74 | 1010.2 |
| 20260503175811 | 64 | 0 | 0.0 | 3.0 | 0.00 | 0.00 | 0.00 | 73 | 1010.2 |
| 20260503175511 | 64 | 282 | 2.0 | 3.0 | 0.00 | 0.00 | 0.00 | 74 | 1010.1 |
| 20260503175305 | 64 | 282 | 3.0 | 3.0 | 0.00 | 0.00 | 0.00 | 74 | 1010.1 |
| 20260503174954 | 64 | 280 | 1.0 | 4.0 | 0.00 | 0.00 | 0.00 | 74 | 1010.1 |